MST,Max TemperatureF,Mean TemperatureF,Min TemperatureF,Max Dew PointF,MeanDew PointF,Min DewpointF,Max Humidity, Mean Humidity, Min Humidity, Max Sea Level PressureIn, Mean Sea Level PressureIn, Min Sea Level PressureIn, Max VisibilityMiles, Mean VisibilityMiles, Min VisibilityMiles, Max Wind SpeedMPH, Mean Wind SpeedMPH, Max Gust SpeedMPH,PrecipitationIn, CloudCover, Events, WindDirDegrees
2013-12-1,50,41,32,24,20,15,69,46,32,30.12,30.04,29.92,10,10,10,17,6,,0.00,0,,79
2013-12-2,60,45,30,28,16,9,59,34,17,29.94,29.76,29.55,10,10,10,33,7,46,0.00,0,,269
2013-12-3,57,50,42,19,13,8,35,24,18,29.54,29.47,29.37,10,10,10,40,16,55,0.00,0,,258
2013-12-4,50,34,19,23,19,15,81,42,29,29.79,29.51,29.41,10,10,10,44,22,58,0.00,1,Rain,232
2013-12-5,17,8,-2,13,4,-5,92,85,79,30.14,29.92,29.80,10,3,0,16,11,,0.21,7,Fog-Snow,181
2013-12-6,19,11,3,14,7,1,95,88,71,30.27,30.06,29.88,10,2,0,26,15,29,0.00,6,Fog-Rain-Snow,191
2013-12-7,16,14,12,14,12,10,92,89,84,30.21,30.00,29.75,1,0,0,30,20,44,0.00,,Fog-Rain-Snow,188
2013-12-8,28,21,14,19,12,3,89,68,41,29.94,29.80,29.66,10,7,0,39,20,55,0.00,4,Fog-Snow,228
2013-12-9,25,18,10,13,4,-7,84,58,36,30.35,30.11,29.94,10,10,10,23,14,26,0.00,0,,251
2013-12-10,43,28,12,16,-1,-18,44,30,16,30.32,30.18,30.04,10,10,10,16,7,,0.00,0,,348
2013-12-11,28,21,14,17,10,3,74,63,36,30.55,30.41,30.13,10,10,10,14,7,,0.00,0,,167
2013-12-12,45,32,19,27,15,-2,78,46,23,30.43,30.24,29.94,10,10,10,21,7,,0.00,0,,195
2013-12-13,45,36,25,28,21,11,82,59,34,30.02,29.83,29.70,10,10,10,25,10,33,0.00,1,,315
2013-12-14,37,28,19,21,17,13,78,62,45,30.32,30.24,30.00,10,10,10,15,9,,0.00,0,,23
2013-12-15,48,36,24,27,17,9,62,44,31,30.25,30.18,30.12,10,10,10,13,7,,0.00,0,,350
2013-12-16,57,46,33,24,17,9,52,36,22,30.23,30.16,30.09,10,10,10,18,8,,0.00,0,,355
2013-12-17,53,40,28,24,16,7,64,41,19,30.33,30.26,30.15,10,10,10,17,8,,0.00,0,,141
2013-12-18,57,44,32,24,14,7,56,32,14,30.12,29.92,29.73,10,10,10,18,5,,0.00,0,,207
2013-12-19,55,44,32,21,18,15,59,41,23,29.70,29.63,29.52,10,10,10,26,13,37,0.00,0,,205
2013-12-20,41,33,25,26,21,18,85,68,47,29.75,29.67,29.58,10,10,10,17,9,,0.00,1,,183
2013-12-21,43,32,21,25,21,12,96,75,28,29.80,29.60,29.34,10,6,1,23,9,,0.01,5,Snow,40
2013-12-22,25,22,19,21,18,7,93,87,50,30.21,30.03,29.78,10,5,1,17,8,,0.06,5,Snow,160
2013-12-23,35,26,16,19,11,4,68,55,40,30.42,30.33,30.22,10,10,10,16,6,,0.00,0,,202
2013-12-24,54,40,26,26,18,7,78,46,30,30.21,30.12,29.95,10,10,5,24,10,33,0.00,1,,318
2013-12-25,36,28,21,23,19,16,85,72,44,30.43,30.34,30.19,10,10,10,15,6,,0.00,0,,174
2013-12-26,52,36,19,18,12,6,78,45,17,30.35,30.27,30.15,10,10,10,17,7,,0.00,0,,23
2013-12-27,50,34,19,18,13,9,68,48,22,30.38,30.28,30.12,10,10,10,14,7,,0.00,0,,123
2013-12-28,54,38,21,19,13,8,66,40,18,30.10,29.88,29.70,10,10,10,18,6,,0.00,0,,323
2013-12-29,28,24,19,21,19,16,92,83,69,30.19,30.11,29.86,10,8,0,14,9,,0.01,5,Fog-Snow,92
2013-12-30,45,32,19,19,15,12,74,52,34,30.32,30.18,30.04,10,10,10,20,10,,0.00,0,,206
2013-12-31,52,36,21,19,16,12,68,43,24,30.23,30.08,29.90,10,10,10,17,9,23,0.00,0,,194